METEOR 2-17 DEB, 35368

Orbit data source: Space-Track

METEOR 2-17 DEB, 35368 is space debris in LEO originally from a launch on Sat, 30 Jan 1988 UTC launched from the Plesetsk Missile And Space Complex (PKMTR). Debris objects in space refer to the collection of defunct objects orbiting the Earth. Examples of debris include non-operational satellites, rocket bodies, and fragments generated from explosions, collisions, or faulty payload assembly.

Loading next visibility...
Identifier
35368, 1988-005AC
Orbit
LEO
Country
Flag of CISCIS
Related business
Manufacturer
Unknown
Mission
Spacecraft
Bus & Motor
Unknown
Mass
Unknown
Launch date (UTC)
1988-01-30 (38 years ago)
Launch vehicle
Unknown
Launch site
Plesetsk Missile And Space Complex (PKMTR)
Object type
Payload
Rocket body
Debris
Shape & HBR
Unknown shape, 0.1 m
Radar Cross Section
Small (<0.1 m²)

Expand to show TLE details & history
Last TLE update: 3 days ago

TLE from 3 days ago
0 METEOR 2-17 DEB
1 35368U 88005AC  25349.43434418  .00002896  00000-0  16059-2 0  9998
2 35368  82.5578  37.6574 0028358 270.2939  89.4987 14.10732910952797
Epoch: 2025-12-15T10:25Z
TLE epoch observation values (Epoch: 2025-12-15T10:25:27.337Z)
Latitude
0.00004°
Longitude
156.96054°
Altitude
859.683 km
Speed
7.423 km/s
True Right ascension
02h 30m 37s
True Declination
0° 00' 00"
Sunlit
Object was in full shadow at epoch
Visualization orbit readout
Latitude
Unknown
Longitude
Unknown
Altitude
Unknown
Speed
Unknown
Apparent Right ascension
Unknown
Apparent Declination
Unknown
Sunlit
N/A
Visualization observer readout
Local Sidereal Time
19:25:25
Azimuth
Unknown
Elevation
Unknown
Doppler factor
Unknown
Orbital elements
Apogee altitude
874.488 km
Perigee altitude
833.471 km
Semi-major axis
7,232.117 km
Eccentricity
0.00284
Inclination
82.5578°
RAAN
37.6574°
Arg. of periapsis
270.2939°
True anomaly
89.82365°
Mean anomaly
89.4987°
Eccentric anomaly
89.66118°
Mean motion
3.52895 °/min
Orbital period
102.01 mins
BSTAR
0.0016059
Loading maneuver chart data...
Computing Atmospheric mass density...
Loading historical data...
Loading historical data...
Loading historical data...
Loading historical data...
Loading historical data...
Loading historical data...
Loading historical data...

Documentation

Showing up to 5 results
|